,,PA_Meas_PMT16A,,PR_Meas_QMR101_102,,RH_Meas_QMH101,,SR_Meas_QMS101,,TA_Meas_QMH101,,GenWind,,GenWind,
time,status,PA,status,PR,status,RH,status,SR,status,TA,status,DirAvg,status,SpdAvg,
2011-01-04, 00:00:04,VALID,916.331,VALID,0,VALID,96.6497,VALID,0,VALID,19.5663,VALID,325,VALID,0.433984,
2011-01-04, 00:01:04,VALID,916.389,VALID,0,VALID,96.642,VALID,0,VALID,19.5858,VALID,325,VALID,0.748828,
2011-01-04, 00:02:04,VALID,916.372,VALID,0,VALID,96.5506,VALID,0,VALID,19.5663,VALID,325,VALID,1.13594,
2011-01-04, 00:03:04,VALID,916.367,VALID,0,VALID,96.3905,VALID,0,VALID,19.4883,VALID,325,VALID,1.19141,
2011-01-04, 00:04:04,VALID,916.354,VALID,0,VALID,96.3676,VALID,0,VALID,19.4298,VALID,325,VALID,0.916016,
2011-01-04, 00:05:04,VALID,916.353,VALID,0,VALID,96.3524,VALID,0,VALID,19.4103,VALID,325,VALID,0.985156,
2011-01-04, 00:06:04,VALID,916.351,VALID,0,VALID,96.36,VALID,0,VALID,19.3713,VALID,325,VALID,0.616406,
2011-01-04, 00:07:04,VALID,916.351,VALID,0,VALID,96.3676,VALID,0,VALID,19.3308,VALID,325,VALID,0.526172,
2011-01-04, 00:08:04,VALID,916.301,VALID,0,VALID,96.3829,VALID,0,VALID,19.3323,VALID,325,VALID,0.814844,
2011-01-04, 00:09:04,VALID,916.308,VALID,0,VALID,96.3981,VALID,0,VALID,19.3128,VALID,325,VALID,0.509766,
2011-01-04, 00:10:04,VALID,916.307,VALID,0,VALID,96.3905,VALID,0,VALID,19.2738,VALID,325,VALID,0.376953,
2011-01-04, 00:11:04,VALID,916.282,VALID,0,VALID,96.4057,VALID,0,VALID,19.2543,VALID,325,VALID,0.570313,
2011-01-04, 00:12:04,VALID,916.277,VALID,0,VALID,96.4515,VALID,0,VALID,19.2543,VALID,325,VALID,0.616797,
2011-01-04, 00:13:04,VALID,916.253,VALID,0,VALID,96.4819,VALID,0.107441,VALID,19.2348,VALID,325,VALID,0.776563,
2011-01-04, 00:14:04,VALID,916.252,VALID,0,VALID,96.5429,VALID,0,VALID,19.2348,VALID,325,VALID,0.846875,
2011-01-04, 00:15:04,VALID,916.23,VALID,0,VALID,96.5277,VALID,0,VALID,19.2153,VALID,325,VALID,0.60625,
2011-01-04, 00:16:04,VALID,916.228,VALID,0,VALID,96.5429,VALID,0,VALID,19.1958,VALID,325,VALID,0.552734,
2011-01-04, 00:17:04,VALID,916.21,VALID,0,VALID,96.5963,VALID,0,VALID,19.1958,VALID,325,VALID,0.676953,
2011-01-04, 00:18:04,VALID,916.19,VALID,0,VALID,96.6192,VALID,0,VALID,19.1749,VALID,325,VALID,0.619531,
2011-01-04, 00:19:04,VALID,916.155,VALID,0,VALID,96.642,VALID,0,VALID,19.1958,VALID,325,VALID,0.654688,
2011-01-04, 00:20:04,VALID,916.176,VALID,0,VALID,96.6573,VALID,0,VALID,19.1763,VALID,325,VALID,0.380859,
2011-01-04, 00:21:04,VALID,916.155,VALID,0,VALID,96.7259,VALID,0,VALID,19.1958,VALID,325,VALID,0.281641,
2011-01-04, 00:22:04,VALID,916.187,VALID,0,VALID,96.7564,VALID,0,VALID,19.1958,VALID,325,VALID,0.179297,
2011-01-04, 00:23:04,VALID,916.184,VALID,0,VALID,96.7411,VALID,0,VALID,19.2363,VALID,325,VALID,0,
2011-01-04, 00:24:04,VALID,916.192,VALID,0,VALID,96.7488,VALID,0,VALID,19.2153,VALID,325,VALID,0,
2011-01-04, 00:25:04,VALID,916.162,VALID,0,VALID,96.7564,VALID,0,VALID,19.1944,VALID,325,VALID,0,
2011-01-04, 00:26:04,VALID,916.177,VALID,0,VALID,96.764,VALID,0,VALID,19.2139,VALID,325,VALID,0,
2011-01-04, 00:27:04,VALID,916.148,VALID,0,VALID,96.7716,VALID,0,VALID,19.2348,VALID,325,VALID,0,
2011-01-04, 00:28:04,VALID,916.164,VALID,0,VALID,96.7793,VALID,0,VALID,19.2723,VALID,325,VALID,0.134766,
2011-01-04, 00:29:04,VALID,916.18,VALID,0,VALID,96.7716,VALID,0,VALID,19.2723,VALID,325,VALID,0,
2011-01-04, 00:30:04,VALID,916.198,VALID,0,VALID,96.7716,VALID,0,VALID,19.3128,VALID,325,VALID,0.0574219,
2011-01-04, 00:31:04,VALID,916.17,VALID,0,VALID,96.7411,VALID,0,VALID,19.2933,VALID,325,VALID,0.330469,
2011-01-04, 00:32:04,VALID,916.183,VALID,0,VALID,96.7335,VALID,0,VALID,19.2723,VALID,325,VALID,0.00585938,
2011-01-04, 00:33:04,VALID,916.185,VALID,0,VALID,96.7107,VALID,0,VALID,19.3128,VALID,325,VALID,0,
2011-01-04, 00:34:04,VALID,916.135,VALID,0,VALID,96.7259,VALID,0,VALID,19.3128,VALID,325,VALID,0,
2011-01-04, 00:35:04,VALID,916.118,VALID,0,VALID,96.7107,VALID,0,VALID,19.3323,VALID,325,VALID,0,
2011-01-04, 00:36:04,VALID,916.117,VALID,0,VALID,96.703,VALID,0,VALID,19.3323,VALID,325,VALID,0,
2011-01-04, 00:37:04,VALID,916.075,VALID,0,VALID,96.6954,VALID,0,VALID,19.3518,VALID,325,VALID,0,
2011-01-04, 00:38:04,VALID,916.068,VALID,0,VALID,96.6725,VALID,0,VALID,19.3113,VALID,325,VALID,0,
2011-01-04, 00:39:04,VALID,916.049,VALID,0,VALID,96.6573,VALID,0,VALID,19.3323,VALID,325,VALID,0,
2011-01-04, 00:40:04,VALID,915.997,VALID,0,VALID,96.6344,VALID,0,VALID,19.3128,VALID,325,VALID,0,
2011-01-04, 00:41:04,VALID,915.996,VALID,0,VALID,96.5658,VALID,0,VALID,19.2933,VALID,325,VALID,0,
2011-01-04, 00:42:04,VALID,915.952,VALID,0,VALID,96.5582,VALID,0,VALID,19.2738,VALID,325,VALID,0,
2011-01-04, 00:43:04,VALID,915.94,VALID,0,VALID,96.5506,VALID,0,VALID,19.2543,VALID,325,VALID,0,
2011-01-04, 00:44:04,VALID,915.948,VALID,0,VALID,96.5734,VALID,0,VALID,19.2348,VALID,325,VALID,0,
2011-01-04, 00:45:04,VALID,915.929,VALID,0,VALID,96.5811,VALID,0,VALID,19.2348,VALID,325,VALID,0,
2011-01-04, 00:46:04,VALID,915.917,VALID,0,VALID,96.6497,VALID,0,VALID,19.2543,VALID,325,VALID,0,
2011-01-04, 00:47:04,VALID,915.937,VALID,0,VALID,96.6649,VALID,0,VALID,19.2348,VALID,325,VALID,0,
2011-01-04, 00:48:04,VALID,915.906,VALID,0,VALID,96.6649,VALID,0,VALID,19.2348,VALID,325,VALID,0,
2011-01-04, 00:49:04,VALID,915.896,VALID,0,VALID,96.6344,VALID,0,VALID,19.2153,VALID,325,VALID,0.442578,
2011-01-04, 00:50:04,VALID,915.876,VALID,0,VALID,96.7107,VALID,0,VALID,19.2153,VALID,325,VALID,0.613281,
2011-01-04, 00:51:04,VALID,915.871,VALID,0,VALID,96.6649,VALID,0,VALID,19.1958,VALID,325,VALID,0.380078,
2011-01-04, 00:52:04,VALID,915.863,VALID,0,VALID,96.7107,VALID,0,VALID,19.1958,VALID,325,VALID,0.319922,
2011-01-04, 00:53:04,VALID,915.867,VALID,0,VALID,96.7411,VALID,0,VALID,19.2153,VALID,325,VALID,0.318359,
2011-01-04, 00:54:04,VALID,915.852,VALID,0,VALID,96.7107,VALID,0,VALID,19.2153,VALID,325,VALID,0.422266,
2011-01-04, 00:55:04,VALID,915.868,VALID,0,VALID,96.7259,VALID,0,VALID,19.1958,VALID,325,VALID,0.791016,
2011-01-04, 00:56:04,VALID,915.832,VALID,0,VALID,96.7488,VALID,0,VALID,19.2153,VALID,325,VALID,0.717969,
2011-01-04, 00:57:04,VALID,915.786,VALID,0,VALID,96.7716,VALID,0.107441,VALID,19.2153,VALID,325,VALID,0.680469,
2011-01-04, 00:58:04,VALID,915.797,VALID,0,VALID,96.7564,VALID,0,VALID,19.2348,VALID,325,VALID,0.641406,
2011-01-04, 00:59:04,VALID,915.748,VALID,0,VALID,96.7488,VALID,0.107441,VALID,19.2153,VALID,325,VALID,0.305859,
2011-01-04, 01:00:04,VALID,915.729,VALID,0,VALID,96.7259,VALID,0,VALID,19.1944,VALID,325,VALID,0.255859,
2011-01-04, 01:01:04,VALID,915.737,VALID,0,VALID,96.7488,VALID,0,VALID,19.2139,VALID,325,VALID,0.458984,
2011-01-04, 01:02:04,VALID,915.715,VALID,0,VALID,96.7945,VALID,0,VALID,19.2543,VALID,325,VALID,0.526953,
2011-01-04, 01:03:04,VALID,915.713,VALID,0,VALID,96.8098,VALID,0,VALID,19.2738,VALID,325,VALID,0.547656,
2011-01-04, 01:04:04,VALID,915.73,VALID,0,VALID,96.8021,VALID,0,VALID,19.2738,VALID,325,VALID,0.596484,
2011-01-04, 01:05:04,VALID,915.694,VALID,0,VALID,96.7564,VALID,0,VALID,19.2543,VALID,325,VALID,0.578906,
2011-01-04, 01:06:04,VALID,915.672,VALID,0,VALID,96.7793,VALID,0,VALID,19.2348,VALID,325,VALID,0.630078,
2011-01-04, 01:07:04,VALID,915.686,VALID,0,VALID,96.7869,VALID,0,VALID,19.2543,VALID,325,VALID,0.658594,
2011-01-04, 01:08:04,VALID,915.619,VALID,0,VALID,96.7564,VALID,0,VALID,19.2153,VALID,325,VALID,0.0988281,
2011-01-04, 01:09:04,VALID,915.552,VALID,0,VALID,96.7107,VALID,0,VALID,19.1958,VALID,325,VALID,0.437891,
2011-01-04, 01:10:04,VALID,915.571,VALID,0,VALID,96.7259,VALID,0,VALID,19.1763,VALID,325,VALID,0.418359,
2011-01-04, 01:11:04,VALID,915.547,VALID,0,VALID,96.764,VALID,0,VALID,19.1568,VALID,325,VALID,0.218359,
2011-01-04, 01:12:04,VALID,915.548,VALID,0,VALID,96.7335,VALID,0,VALID,19.1778,VALID,325,VALID,0,
2011-01-04, 01:13:04,VALID,915.544,VALID,0,VALID,96.6573,VALID,0,VALID,19.1178,VALID,325,VALID,0,
2011-01-04, 01:14:04,VALID,915.565,VALID,0,VALID,96.5887,VALID,0,VALID,19.0593,VALID,325,VALID,0,
2011-01-04, 01:15:04,VALID,915.551,VALID,0,VALID,96.6192,VALID,0,VALID,19.0203,VALID,325,VALID,0,
2011-01-04, 01:16:04,VALID,915.539,VALID,0,VALID,96.6649,VALID,0,VALID,19.0203,VALID,325,VALID,0.330469,
2011-01-04, 01:17:04,VALID,915.531,VALID,0,VALID,96.6725,VALID,0,VALID,19.0008,VALID,325,VALID,0.328906,
2011-01-04, 01:18:04,VALID,915.527,VALID,0,VALID,96.6192,VALID,0,VALID,18.9619,VALID,325,VALID,0.588672,
2011-01-04, 01:19:04,VALID,915.547,VALID,0,VALID,96.6725,VALID,0,VALID,18.9814,VALID,325,VALID,0.682813,
2011-01-04, 01:20:04,VALID,915.543,VALID,0,VALID,96.7259,VALID,0,VALID,19.0008,VALID,325,VALID,0.534375,
2011-01-04, 01:21:04,VALID,915.542,VALID,0,VALID,96.7488,VALID,0,VALID,19.0008,VALID,325,VALID,0.528125,
2011-01-04, 01:22:04,VALID,915.547,VALID,0,VALID,96.7716,VALID,0,VALID,18.9799,VALID,325,VALID,0.560156,
2011-01-04, 01:23:04,VALID,915.526,VALID,0,VALID,96.7564,VALID,0,VALID,18.9814,VALID,325,VALID,0.232422,
2011-01-04, 01:24:04,VALID,915.542,VALID,0,VALID,96.7411,VALID,0,VALID,18.9619,VALID,325,VALID,0.347266,
2011-01-04, 01:25:04,VALID,915.503,VALID,0,VALID,96.7411,VALID,0,VALID,18.9214,VALID,325,VALID,0.334375,
2011-01-04, 01:26:04,VALID,915.543,VALID,0,VALID,96.7259,VALID,0,VALID,18.9034,VALID,325,VALID,0.319922,
2011-01-04, 01:27:04,VALID,915.517,VALID,0,VALID,96.7411,VALID,0,VALID,18.8839,VALID,325,VALID,0.31875,
2011-01-04, 01:28:04,VALID,915.493,VALID,0,VALID,96.7488,VALID,0,VALID,18.8449,VALID,325,VALID,0.227734,
2011-01-04, 01:29:04,VALID,915.486,VALID,0,VALID,96.7564,VALID,0,VALID,18.8644,VALID,325,VALID,0,
2011-01-04, 01:30:04,VALID,915.468,VALID,0,VALID,96.7869,VALID,0,VALID,18.8449,VALID,325,VALID,0.0621094,
2011-01-04, 01:31:04,VALID,915.437,VALID,0,VALID,96.8174,VALID,0,VALID,18.8644,VALID,325,VALID,0.046875,
2011-01-04, 01:32:04,VALID,915.389,VALID,0,VALID,96.8174,VALID,0,VALID,18.8449,VALID,325,VALID,0,
2011-01-04, 01:33:04,VALID,915.385,VALID,0,VALID,96.7869,VALID,0,VALID,18.8449,VALID,325,VALID,0,
2011-01-04, 01:34:04,VALID,915.36,VALID,0,VALID,96.8098,VALID,0,VALID,18.8254,VALID,325,VALID,0,
2011-01-04, 01:35:04,VALID,915.358,VALID,0,VALID,96.9165,VALID,0,VALID,18.8839,VALID,325,VALID,0,
2011-01-04, 01:36:04,VALID,915.374,VALID,0,VALID,96.8326,VALID,0,VALID,18.8644,VALID,325,VALID,0,
2011-01-04, 01:37:04,VALID,915.318,VALID,0,VALID,96.7335,VALID,0,VALID,18.7655,VALID,325,VALID,0,
2011-01-04, 01:38:04,VALID,915.275,VALID,0,VALID,96.7411,VALID,0,VALID,18.7279,VALID,325,VALID,0,
2011-01-04, 01:39:04,VALID,915.244,VALID,0,VALID,96.7259,VALID,0,VALID,18.7084,VALID,325,VALID,0.00507812,
2011-01-04, 01:40:04,VALID,915.196,VALID,0,VALID,96.764,VALID,0,VALID,18.6889,VALID,325,VALID,0.669922,
2011-01-04, 01:41:04,VALID,915.22,VALID,0,VALID,96.7259,VALID,0,VALID,18.6499,VALID,325,VALID,0.514844,
2011-01-04, 01:42:04,VALID,915.181,VALID,0,VALID,96.7869,VALID,0,VALID,18.59,VALID,325,VALID,0.339453,
2011-01-04, 01:43:04,VALID,915.157,VALID,0,VALID,96.764,VALID,0,VALID,18.5914,VALID,325,VALID,0.16875,
2011-01-04, 01:44:04,VALID,915.124,VALID,0,VALID,96.7564,VALID,0,VALID,18.5525,VALID,325,VALID,0.207422,
2011-01-04, 01:45:04,VALID,915.128,VALID,0,VALID,96.8021,VALID,0,VALID,18.5525,VALID,325,VALID,0.200391,
2011-01-04, 01:46:04,VALID,915.065,VALID,0,VALID,96.8631,VALID,0,VALID,18.5525,VALID,325,VALID,0.298047,
2011-01-04, 01:47:04,VALID,915.107,VALID,0,VALID,96.8631,VALID,0,VALID,18.5525,VALID,325,VALID,0.440234,
2011-01-04, 01:48:04,VALID,915.112,VALID,0,VALID,96.9927,VALID,0.107441,VALID,18.572,VALID,325,VALID,0.390234,
2011-01-04, 01:49:04,VALID,915.084,VALID,0,VALID,97.0537,VALID,0,VALID,18.6694,VALID,325,VALID,0.350391,
2011-01-04, 01:50:04,VALID,915.084,VALID,0,VALID,97.0766,VALID,0,VALID,18.7488,VALID,325,VALID,0.198437,
2011-01-04, 01:51:04,VALID,915.08,VALID,0,VALID,97.0613,VALID,0,VALID,18.7669,VALID,325,VALID,0.157422,
2011-01-04, 01:52:04,VALID,915.093,VALID,0,VALID,97.0308,VALID,0,VALID,18.7669,VALID,325,VALID,0,
2011-01-04, 01:53:04,VALID,915.093,VALID,0,VALID,97.0461,VALID,0,VALID,18.7669,VALID,325,VALID,0,
2011-01-04, 01:54:04,VALID,915.088,VALID,0,VALID,97.0308,VALID,0,VALID,18.7864,VALID,325,VALID,0,
2011-01-04, 01:55:04,VALID,915.066,VALID,0,VALID,97.0308,VALID,0,VALID,18.7864,VALID,325,VALID,0,
2011-01-04, 01:56:04,VALID,915.037,VALID,0,VALID,97.008,VALID,0,VALID,18.7864,VALID,325,VALID,0,
2011-01-04, 01:57:04,VALID,915.055,VALID,0,VALID,96.9546,VALID,0,VALID,18.7864,VALID,325,VALID,0,
2011-01-04, 01:58:04,VALID,915.08,VALID,0,VALID,96.9622,VALID,0,VALID,18.7669,VALID,325,VALID,0,
2011-01-04, 01:59:04,VALID,915.072,VALID,0,VALID,96.9394,VALID,0,VALID,18.7474,VALID,325,VALID,0,
2011-01-04, 02:00:04,VALID,915.069,VALID,0,VALID,96.9546,VALID,0,VALID,18.7474,VALID,325,VALID,0,
2011-01-04, 02:01:04,VALID,915.055,VALID,0,VALID,96.9622,VALID,0,VALID,18.7474,VALID,325,VALID,0,
2011-01-04, 02:02:04,VALID,915.061,VALID,0,VALID,96.9546,VALID,0,VALID,18.7474,VALID,325,VALID,0,
2011-01-04, 02:03:04,VALID,915.038,VALID,0,VALID,96.9394,VALID,0,VALID,18.7474,VALID,325,VALID,0,
2011-01-04, 02:04:04,VALID,914.986,VALID,0,VALID,96.9622,VALID,0,VALID,18.7683,VALID,325,VALID,0,
2011-01-04, 02:05:04,VALID,914.985,VALID,0,VALID,96.9851,VALID,0,VALID,18.7474,VALID,325,VALID,0,
2011-01-04, 02:06:04,VALID,914.962,VALID,0,VALID,96.9317,VALID,0,VALID,18.7474,VALID,325,VALID,0.120703,
2011-01-04, 02:07:04,VALID,914.931,VALID,0,VALID,96.7793,VALID,0,VALID,18.6304,VALID,325,VALID,0.361328,
2011-01-04, 02:08:04,VALID,914.94,VALID,0,VALID,96.8936,VALID,0,VALID,18.6304,VALID,325,VALID,0.464063,
2011-01-04, 02:09:04,VALID,914.962,VALID,0,VALID,97.0232,VALID,0,VALID,18.7488,VALID,325,VALID,0.474219,
2011-01-04, 02:10:04,VALID,914.95,VALID,0,VALID,97.1299,VALID,0,VALID,18.8449,VALID,325,VALID,0.464453,
2011-01-04, 02:11:04,VALID,914.94,VALID,0,VALID,97.0918,VALID,0,VALID,18.8644,VALID,325,VALID,0.492188,
2011-01-04, 02:12:04,VALID,914.939,VALID,0,VALID,97.0156,VALID,0,VALID,18.8268,VALID,325,VALID,0.399219,
2011-01-04, 02:13:04,VALID,914.906,VALID,0,VALID,96.9622,VALID,0,VALID,18.7474,VALID,325,VALID,0.323438,
2011-01-04, 02:14:04,VALID,914.887,VALID,0,VALID,97.0156,VALID,0,VALID,18.7474,VALID,325,VALID,0.336328,
2011-01-04, 02:15:04,VALID,914.904,VALID,0,VALID,97.0613,VALID,0,VALID,18.8268,VALID,325,VALID,0.255469,
2011-01-04, 02:16:04,VALID,914.931,VALID,0,VALID,97.008,VALID,0,VALID,18.7864,VALID,325,VALID,0.334766,
2011-01-04, 02:17:04,VALID,914.977,VALID,0,VALID,96.9698,VALID,0,VALID,18.7279,VALID,325,VALID,0.705859,
2011-01-04, 02:18:04,VALID,914.94,VALID,0,VALID,96.9394,VALID,0,VALID,18.7293,VALID,325,VALID,0.728516,
2011-01-04, 02:19:04,VALID,914.925,VALID,0,VALID,97.008,VALID,0,VALID,18.7084,VALID,325,VALID,0.671875,
2011-01-04, 02:20:04,VALID,914.93,VALID,0,VALID,96.9775,VALID,0,VALID,18.7084,VALID,325,VALID,0.436328,
2011-01-04, 02:21:04,VALID,914.933,VALID,0,VALID,96.9775,VALID,0,VALID,18.6889,VALID,325,VALID,0.459766,
2011-01-04, 02:22:04,VALID,914.962,VALID,0,VALID,96.9546,VALID,0,VALID,18.6889,VALID,325,VALID,0.567187,
2011-01-04, 02:23:04,VALID,914.947,VALID,0,VALID,96.9927,VALID,0,VALID,18.7084,VALID,325,VALID,0.658984,
2011-01-04, 02:24:04,VALID,914.909,VALID,0,VALID,97.0156,VALID,0,VALID,18.7474,VALID,325,VALID,0.645312,
2011-01-04, 02:25:04,VALID,914.941,VALID,0,VALID,97.0308,VALID,0,VALID,18.7474,VALID,325,VALID,0.569531,
2011-01-04, 02:26:04,VALID,914.969,VALID,0,VALID,97.0156,VALID,0,VALID,18.7669,VALID,325,VALID,0.616016,
2011-01-04, 02:27:04,VALID,914.953,VALID,0,VALID,97.008,VALID,0,VALID,18.7669,VALID,325,VALID,0.512109,
2011-01-04, 02:28:04,VALID,914.97,VALID,0,VALID,96.9698,VALID,0,VALID,18.7669,VALID,325,VALID,0.302344,
2011-01-04, 02:29:04,VALID,914.992,VALID,0,VALID,96.9775,VALID,0,VALID,18.7669,VALID,325,VALID,0,
2011-01-04, 02:30:04,VALID,914.977,VALID,0,VALID,96.9622,VALID,0,VALID,18.7878,VALID,325,VALID,0,
2011-01-04, 02:31:04,VALID,914.914,VALID,0,VALID,96.9241,VALID,0,VALID,18.7084,VALID,325,VALID,0,
2011-01-04, 02:32:04,VALID,914.942,VALID,0,VALID,96.886,VALID,0,VALID,18.6889,VALID,325,VALID,0,
2011-01-04, 02:33:04,VALID,914.905,VALID,0,VALID,96.9546,VALID,0,VALID,18.7488,VALID,325,VALID,0,
2011-01-04, 02:34:04,VALID,914.911,VALID,0,VALID,97.0461,VALID,0,VALID,18.8059,VALID,326,VALID,0.363281,
2011-01-04, 02:35:04,VALID,914.877,VALID,0,VALID,97.0156,VALID,0,VALID,18.8463,VALID,325,VALID,0.426562,
2011-01-04, 02:36:04,VALID,914.885,VALID,0,VALID,97.0003,VALID,0,VALID,18.8254,VALID,325,VALID,0.441016,
2011-01-04, 02:37:04,VALID,914.87,VALID,0,VALID,97.0385,VALID,0,VALID,18.8449,VALID,325,VALID,0.529688,
2011-01-04, 02:38:04,VALID,914.862,VALID,0,VALID,97.0308,VALID,0,VALID,18.8853,VALID,325,VALID,0.446875,
2011-01-04, 02:39:04,VALID,914.8,VALID,0,VALID,96.9698,VALID,0,VALID,18.8449,VALID,325,VALID,0.413672,
2011-01-04, 02:40:04,VALID,914.815,VALID,0,VALID,96.9394,VALID,0,VALID,18.8059,VALID,325,VALID,0.452344,
2011-01-04, 02:41:04,VALID,914.793,VALID,0,VALID,96.9775,VALID,0,VALID,18.7864,VALID,325,VALID,0.553516,
2011-01-04, 02:42:04,VALID,914.776,VALID,0,VALID,96.9546,VALID,0,VALID,18.7474,VALID,325,VALID,0.548437,
2011-01-04, 02:43:04,VALID,914.782,VALID,0,VALID,96.9927,VALID,0,VALID,18.7474,VALID,325,VALID,0.41875,
2011-01-04, 02:44:04,VALID,914.806,VALID,0,VALID,97.0003,VALID,0,VALID,18.7683,VALID,325,VALID,0.417188,
2011-01-04, 02:45:05,VALID,914.755,VALID,0,VALID,96.9927,VALID,0,VALID,18.7488,VALID,325,VALID,0.185156,
2011-01-04, 02:46:04,VALID,914.753,VALID,0,VALID,96.947,VALID,0,VALID,18.7098,VALID,325,VALID,0,
2011-01-04, 02:47:04,VALID,914.771,VALID,0,VALID,96.9698,VALID,0,VALID,18.6889,VALID,325,VALID,0,
2011-01-04, 02:48:04,VALID,914.798,VALID,0,VALID,96.9622,VALID,0,VALID,18.6694,VALID,325,VALID,0,
2011-01-04, 02:49:05,VALID,914.761,VALID,0,VALID,96.9089,VALID,0,VALID,18.6304,VALID,325,VALID,0.0859375,
2011-01-04, 02:50:05,VALID,914.739,VALID,0,VALID,96.8631,VALID,0,VALID,18.5914,VALID,325,VALID,0.396094,
2011-01-04, 02:51:05,VALID,914.7,VALID,0,VALID,96.9241,VALID,0,VALID,18.5929,VALID,325,VALID,0.696484,
2011-01-04, 02:52:05,VALID,914.695,VALID,0,VALID,96.9165,VALID,0,VALID,18.5525,VALID,325,VALID,0.546094,
2011-01-04, 02:53:05,VALID,914.696,VALID,0,VALID,96.9546,VALID,0,VALID,18.5525,VALID,325,VALID,0.751953,
2011-01-04, 02:54:05,VALID,914.658,VALID,0,VALID,96.9622,VALID,0,VALID,18.5539,VALID,325,VALID,0.665234,
2011-01-04, 02:55:05,VALID,914.667,VALID,0,VALID,96.947,VALID,0,VALID,18.533,VALID,325,VALID,0.604297,
2011-01-04, 02:56:05,VALID,914.658,VALID,0,VALID,96.9622,VALID,0,VALID,18.533,VALID,325,VALID,0.562891,
2011-01-04, 02:57:05,VALID,914.672,VALID,0,VALID,96.9851,VALID,0,VALID,18.5135,VALID,325,VALID,0.483594,
2011-01-04, 02:58:05,VALID,914.687,VALID,0,VALID,96.9927,VALID,0,VALID,18.5149,VALID,325,VALID,0.183203,
2011-01-04, 02:59:05,VALID,914.695,VALID,0,VALID,97.0385,VALID,0,VALID,18.5135,VALID,325,VALID,0.614062,
2011-01-04, 03:00:05,VALID,914.697,VALID,0,VALID,96.9622,VALID,0,VALID,18.4745,VALID,325,VALID,0.682813,
2011-01-04, 03:01:05,VALID,914.68,VALID,0,VALID,97.0308,VALID,0,VALID,18.5135,VALID,325,VALID,0.786719,
2011-01-04, 03:02:05,VALID,914.665,VALID,0,VALID,97.0461,VALID,0,VALID,18.4954,VALID,325,VALID,0.487891,
2011-01-04, 03:03:05,VALID,914.7,VALID,0,VALID,97.0613,VALID,0,VALID,18.4355,VALID,325,VALID,0.451953,
2011-01-04, 03:04:05,VALID,914.691,VALID,0,VALID,97.0461,VALID,0,VALID,18.4355,VALID,325,VALID,0.560938,
2011-01-04, 03:05:05,VALID,914.68,VALID,0,VALID,97.069,VALID,0,VALID,18.494,VALID,325,VALID,0.624219,
2011-01-04, 03:06:05,VALID,914.704,VALID,0,VALID,97.1223,VALID,0,VALID,18.4954,VALID,325,VALID,0.526953,
2011-01-04, 03:07:05,VALID,914.687,VALID,0,VALID,97.1376,VALID,0,VALID,18.533,VALID,325,VALID,0.50625,
2011-01-04, 03:08:05,VALID,914.715,VALID,0,VALID,97.1604,VALID,0,VALID,18.5135,VALID,325,VALID,0.373828,
2011-01-04, 03:09:05,VALID,914.664,VALID,0,VALID,97.1299,VALID,0,VALID,18.5135,VALID,325,VALID,0.35,
2011-01-04, 03:10:05,VALID,914.646,VALID,0,VALID,97.1299,VALID,0,VALID,18.5135,VALID,325,VALID,0.405469,
2011-01-04, 03:11:05,VALID,914.679,VALID,0,VALID,97.1452,VALID,0,VALID,18.533,VALID,325,VALID,0.45625,
2011-01-04, 03:12:05,VALID,914.655,VALID,0,VALID,97.1223,VALID,0,VALID,18.5344,VALID,325,VALID,0.403906,
2011-01-04, 03:13:05,VALID,914.66,VALID,0,VALID,97.1452,VALID,0,VALID,18.533,VALID,325,VALID,0.542969,
2011-01-04, 03:14:05,VALID,914.637,VALID,0,VALID,97.1299,VALID,0,VALID,18.5539,VALID,325,VALID,0.439063,
2011-01-04, 03:15:05,VALID,914.629,VALID,0,VALID,97.0003,VALID,0,VALID,18.5149,VALID,325,VALID,0.172266,
2011-01-04, 03:16:05,VALID,914.607,VALID,0,VALID,96.8174,VALID,0,VALID,18.338,VALID,325,VALID,0,
2011-01-04, 03:17:05,VALID,914.638,VALID,0,VALID,96.764,VALID,0,VALID,18.2601,VALID,325,VALID,0,
2011-01-04, 03:18:05,VALID,914.585,VALID,0,VALID,96.8707,VALID,0,VALID,18.2809,VALID,325,VALID,0.416406,
2011-01-04, 03:19:05,VALID,914.61,VALID,0,VALID,96.8784,VALID,0,VALID,18.2211,VALID,325,VALID,0.352734,
2011-01-04, 03:20:05,VALID,914.605,VALID,0,VALID,96.9622,VALID,0,VALID,18.2211,VALID,325,VALID,0.398828,
2011-01-04, 03:21:05,VALID,914.608,VALID,0,VALID,96.8936,VALID,0,VALID,18.1626,VALID,325,VALID,0.253125,
2011-01-04, 03:22:05,VALID,914.599,VALID,0,VALID,96.9851,VALID,0,VALID,18.1445,VALID,325,VALID,0.362109,
2011-01-04, 03:23:05,VALID,914.605,VALID,0,VALID,97.0613,VALID,0,VALID,18.203,VALID,325,VALID,0.364844,
2011-01-04, 03:24:05,VALID,914.617,VALID,0,VALID,97.1299,VALID,0,VALID,18.2225,VALID,325,VALID,0.0292969,
2011-01-04, 03:25:05,VALID,914.651,VALID,0,VALID,97.0842,VALID,0,VALID,18.2406,VALID,325,VALID,0.341016,
2011-01-04, 03:26:05,VALID,914.663,VALID,0,VALID,97.1376,VALID,0,VALID,18.3004,VALID,325,VALID,0.325781,
2011-01-04, 03:27:05,VALID,914.668,VALID,0,VALID,97.1528,VALID,0,VALID,18.3185,VALID,325,VALID,0.115625,
2011-01-04, 03:28:05,VALID,914.638,VALID,0,VALID,97.2062,VALID,0,VALID,18.4174,VALID,325,VALID,0,
2011-01-04, 03:29:05,VALID,914.615,VALID,0,VALID,96.9698,VALID,0,VALID,18.299,VALID,325,VALID,0.362109,
2011-01-04, 03:30:05,VALID,914.633,VALID,0,VALID,97.0232,VALID,0,VALID,18.2796,VALID,325,VALID,0.0410156,
2011-01-04, 03:31:05,VALID,914.625,VALID,0,VALID,97.0537,VALID,0,VALID,18.3185,VALID,325,VALID,0.13125,
2011-01-04, 03:32:05,VALID,914.659,VALID,0,VALID,97.0308,VALID,0,VALID,18.3199,VALID,325,VALID,0,
2011-01-04, 03:33:05,VALID,914.638,VALID,0,VALID,97.0842,VALID,0,VALID,18.3199,VALID,325,VALID,0,
2011-01-04, 03:34:05,VALID,914.666,VALID,0,VALID,97.069,VALID,0,VALID,18.3394,VALID,325,VALID,0,
2011-01-04, 03:35:05,VALID,914.672,VALID,0,VALID,97.1681,VALID,0,VALID,18.3979,VALID,325,VALID,0.0847656,
2011-01-04, 03:36:05,VALID,914.666,VALID,0,VALID,97.1681,VALID,0,VALID,18.4369,VALID,325,VALID,0.0015625,
2011-01-04, 03:37:05,VALID,914.658,VALID,0,VALID,97.1986,VALID,0,VALID,18.5149,VALID,325,VALID,0.0117188,
2011-01-04, 03:38:05,VALID,914.69,VALID,0,VALID,97.2062,VALID,0,VALID,18.5539,VALID,325,VALID,0.103125,
2011-01-04, 03:39:05,VALID,914.684,VALID,0,VALID,97.1909,VALID,0,VALID,18.572,VALID,325,VALID,0,
2011-01-04, 03:40:05,VALID,914.706,VALID,0,VALID,97.1986,VALID,0,VALID,18.6109,VALID,325,VALID,0.266406,
2011-01-04, 03:41:05,VALID,914.681,VALID,0,VALID,97.1833,VALID,0,VALID,18.6319,VALID,325,VALID,0,
2011-01-04, 03:42:05,VALID,914.63,VALID,0,VALID,97.0613,VALID,0,VALID,18.5929,VALID,325,VALID,0,
2011-01-04, 03:43:05,VALID,914.654,VALID,0,VALID,96.9012,VALID,0,VALID,18.4355,VALID,325,VALID,0.283203,
2011-01-04, 03:44:05,VALID,914.638,VALID,0,VALID,97.0613,VALID,0,VALID,18.4564,VALID,325,VALID,0.296875,
2011-01-04, 03:45:05,VALID,914.65,VALID,0,VALID,97.1071,VALID,0,VALID,18.5149,VALID,325,VALID,0.160938,
2011-01-04, 03:46:05,VALID,914.691,VALID,0,VALID,97.0994,VALID,0,VALID,18.4954,VALID,325,VALID,0,
2011-01-04, 03:47:05,VALID,914.688,VALID,0,VALID,97.1223,VALID,0,VALID,18.5344,VALID,325,VALID,0.271875,
2011-01-04, 03:48:05,VALID,914.709,VALID,0,VALID,97.0385,VALID,0,VALID,18.455,VALID,325,VALID,0,